[[{"header":{"parameterUnit":"m.s-1","parameterCategory":1,"la1":30.2991,"la2":30.254,"lo1":-89.0895,"lo2":-89.0444,"dy":0.0017,"dx":0.0017,"nx":28,"ny":28,"refTime":"2025-04-10T21:00:00:Z","depth":0,"parameterNumber":2,"parameterNumberName":"U-component_of_WINDS"},"data":[0,0,0,0,0,0,0,0,0,0,0,0,0,0,0,0,0,0,0,0,0,0,0,0,0,0,0,0,0,0,0,0,0,0,0,0,0,0,0,0,0,0,0,0,0,0,0,0,0,0,0,0,0,0,0,0,0,0,1.7421,1.7422,0,1.754,1.7542,1.7543,1.7568,1.7567,1.7566,1.7565,1.7692,1.7696,1.7701,0,0,0,0,0,0,0,0,0,0,0,0,0,1.7219,1.7222,1.742,1.7422,1.7424,1.754,1.7542,1.7544,1.7568,1.7567,1.7566,1.7565,1.7691,1.7696,1.7701,0,0,0,0,0,0,0,0,0,0,0,0,0,1.7319,1.7224,1.742,1.745,1.7454,1.754,1.7542,1.7544,1.7568,1.7567,1.7566,1.7564,1.7689,1.7695,1.7702,1.7768,0,0,1.7721,1.7724,0,0,0,0,0,0,0,0,1.7314,1.7327,1.7444,1.7448,1.7452,1.7538,1.7517,1.7619,1.7569,1.7525,1.7565,1.7564,1.7642,1.7652,1.7678,1.7774,1.778,1.7722,1.7725,1.7728,1.773,0,0,0,0,0,0,0,1.7307,1.7322,1.7468,1.7446,1.7451,1.7459,1.7472,1.7537,1.759,1.7529,1.7531,1.7544,1.7644,1.7672,1.7681,1.7781,1.7721,1.7727,1.7731,1.7734,1.7942,1.7944,0,0,0,0,0,0,1.7294,1.7316,1.7464,1.7472,1.7378,1.7464,1.7478,1.7512,1.7589,1.76,1.7545,1.7545,1.7662,1.7674,1.7686,1.7771,1.7728,1.7734,1.7738,1.794,1.7942,1.7944,0,0,0,0,0,0,1.7289,1.7307,1.7459,1.7394,1.7414,1.7469,1.7506,1.7515,1.7542,1.7602,1.7612,1.7563,1.7661,1.7677,1.7748,1.7776,1.7737,1.7743,1.7938,1.7941,1.7943,1.794,0,0,0,0,0,0,1.7283,1.7305,1.7329,1.7395,1.7418,1.7518,1.7508,1.7518,1.7553,1.7553,1.7621,1.7631,1.7661,1.7738,1.7754,1.7784,1.7748,1.7936,1.7939,1.7942,1.7938,1.7942,1.7946,0,0,0,0,0,1.7276,1.7324,1.733,1.7348,1.7449,1.7519,1.7533,1.7565,1.7555,1.7581,1.762,1.7629,1.777,1.7745,1.7764,1.7795,1.7934,1.7938,1.7942,1.7936,1.7942,1.7946,0,0,0,0,0,0,1.7261,1.7333,1.7341,1.7411,1.7459,1.7523,1.7557,1.7569,1.7621,1.762,1.7659,1.7674,1.7744,1.7777,1.7748,1.7866,1.7852,1.786,1.7841,1.7847,1.7851,1.7842,1.7753,0,0,0,0,0,1.7266,1.7315,1.7376,1.7432,1.7455,1.7502,1.7534,1.7555,1.7606,1.7627,1.7671,1.7722,1.7778,1.7814,1.7869,1.7943,1.796,1.7974,1.7978,1.7981,1.7988,1.8032,1.804,1.7957,1.7957,1.7957,0,0,1.7276,1.7321,1.735,1.743,1.747,1.7522,1.7519,1.7574,1.7614,1.7636,1.7706,1.774,1.78,1.7874,1.7908,1.7903,1.8014,1.7986,1.7988,1.7993,1.8037,1.8045,1.8052,1.796,1.7959,1.7959,0,0,1.7322,1.736,1.7412,1.7452,1.7512,1.7543,1.7556,1.7619,1.7642,1.7713,1.7731,1.7781,1.7875,1.7918,1.7952,1.8018,1.8029,1.8034,1.8055,1.8098,1.8105,1.8111,1.8137,1.8145,1.8041,1.8041,1.8041,0,1.7328,1.7406,1.7438,1.7493,1.7528,1.755,1.7605,1.7642,1.7717,1.7743,1.7735,1.7857,1.7898,1.7984,1.8,1.8026,1.8044,1.8027,1.8101,1.8108,1.8114,1.8139,1.8148,1.8041,1.8041,1.8041,1.8041,0,1.7411,1.7465,1.7501,1.7572,1.7612,1.7666,1.7708,1.7745,1.7763,1.7796,1.7869,1.792,1.7987,1.8009,1.8027,1.8098,1.8093,1.8093,1.808,1.8121,1.8146,1.8155,1.8041,1.8041,1.8041,1.8041,0,0,1.745,1.754,1.7552,1.7586,1.7655,1.7698,1.7755,1.7819,1.7851,1.7903,1.7953,1.8034,1.8035,1.8074,1.8098,1.8135,1.8187,1.8131,1.8133,1.8141,1.8271,1.8271,1.8281,1.8195,1.8196,1.8198,1.8267,0,1.7506,1.7606,1.7638,1.7722,1.7774,1.7797,1.7847,1.7896,1.7928,1.7979,1.8015,1.8073,1.8069,1.8093,1.8131,1.8172,1.8213,1.8167,1.8244,1.8246,1.8229,1.8294,1.8294,1.8356,1.8276,1.8278,1.8279,0,1.7583,1.7636,1.7726,1.779,1.7813,1.7857,1.792,1.7967,1.8024,1.8046,1.809,1.8111,1.8174,1.8157,1.8246,1.8214,1.8248,1.8273,1.8276,1.8285,1.8266,1.8306,1.8376,1.8386,1.8293,1.8292,1.8291,0,1.7605,1.7699,1.7765,1.7793,1.7869,1.79,1.7934,1.7989,1.8027,1.8082,1.8108,1.817,1.8205,1.8254,1.8292,1.8276,1.8379,1.8365,1.84,1.84,1.8421,1.842,1.8499,1.8441,1.844,1.844,1.844,0,1.7665,1.7719,1.7776,1.7817,1.788,1.7917,1.7979,1.8014,1.8063,1.8113,1.8137,1.8184,1.8231,1.8285,1.8315,1.8386,1.8401,1.8422,1.843,1.842,1.8418,1.8444,1.8441,1.8443,1.8442,1.8442,1.8441,0,1.77,1.774,1.7814,1.788,1.7898,1.7942,1.8,1.8042,1.8076,1.8139,1.8156,1.821,1.8275,1.8318,1.8401,1.8422,1.8499,1.8505,1.848,1.8484,1.8518,1.8515,1.8617,1.8634,1.8563,1.8563,1.8564,0,1.7736,1.7778,1.7849,1.7884,1.7917,1.7973,1.8011,1.805,1.809,1.816,1.8194,1.826,1.8315,1.8418,1.8466,1.8531,1.854,1.8571,1.855,1.854,1.8543,1.854,1.8546,1.8575,1.8576,1.8576,1.8576,0,1.7796,1.7814,1.7868,1.7929,1.7974,1.8025,1.8076,1.8103,1.8152,1.8196,1.8262,1.8305,1.839,1.8456,1.8526,1.8563,1.8579,1.8583,1.8595,1.8587,1.8571,1.8582,1.8491,1.8581,1.858,1.858,1.858,1.8579,1.7834,1.7873,1.793,1.799,1.8033,1.808,1.8124,1.8163,1.8219,1.829,1.831,1.838,1.8439,1.8534,1.8572,1.8629,1.8626,1.8643,1.8647,1.8651,1.8653,1.8561,1.8642,1.8642,1.8642,1.8642,1.8642,0,1.7897,1.7935,1.7989,1.806,1.8108,1.8117,1.8175,1.8215,1.8276,1.8329,1.8383,1.846,1.8526,1.8579,1.8647,1.8683,1.8692,1.8699,1.8698,1.8707,1.865,1.8634,1.8691,1.8691,1.8691,1.8691,1.8691,1.8691,1.7935,1.8004,1.8029,1.812,1.8158,1.8226,1.8258,1.8303,1.8346,1.8431,1.8485,1.8519,1.8574,1.8646,1.8707,1.8722,1.8747,1.8753,1.8769,1.8716,1.871,1.8705,1.869,1.8757,1.8757,1.8821,1.8821,1.8822]},{"header":{"parameterUnit":"m.s-1","parameterCategory":1,"la1":30.2991,"la2":30.254,"lo1":-89.0895,"lo2":-89.0444,"dy":0.0017,"dx":0.0017,"nx":28,"ny":28,"refTime":"2025-04-10T21:00:00:Z","depth":0,"parameterNumber":3,"parameterNumberName":"V-component_of_WINDS"},"data":[0,0,0,0,0,0,0,0,0,0,0,0,0,0,0,0,0,0,0,0,0,0,0,0,0,0,0,0,0,0,0,0,0,0,0,0,0,0,0,0,0,0,0,0,0,0,0,0,0,0,0,0,0,0,0,0,0,0,-1.5338,-1.5338,0,-1.534,-1.534,-1.534,-1.5431,-1.5433,-1.5435,-1.5438,-1.5434,-1.5432,-1.5429,0,0,0,0,0,0,0,0,0,0,0,0,0,-1.541,-1.5408,-1.5338,-1.5338,-1.5338,-1.534,-1.534,-1.534,-1.543,-1.5433,-1.5436,-1.5439,-1.5435,-1.5432,-1.5429,0,0,0,0,0,0,0,0,0,0,0,0,0,-1.5391,-1.5407,-1.5338,-1.5383,-1.5388,-1.534,-1.534,-1.534,-1.543,-1.5433,-1.5437,-1.544,-1.5436,-1.5432,-1.5429,-1.5336,0,0,-1.5418,-1.5417,0,0,0,0,0,0,0,0,-1.5392,-1.5389,-1.5377,-1.538,-1.5385,-1.5389,-1.5364,-1.5338,-1.5429,-1.5413,-1.5438,-1.5442,-1.5416,-1.5414,-1.5406,-1.5336,-1.5336,-1.5418,-1.5416,-1.5414,-1.5413,0,0,0,0,0,0,0,-1.5393,-1.5389,-1.5339,-1.5376,-1.5381,-1.5403,-1.5404,-1.5359,-1.5394,-1.5415,-1.5422,-1.5421,-1.5418,-1.5409,-1.5407,-1.5336,-1.5418,-1.5415,-1.5413,-1.5411,-1.5191,-1.5187,0,0,0,0,0,0,-1.5389,-1.539,-1.5338,-1.5339,-1.5398,-1.5399,-1.54,-1.5384,-1.5395,-1.54,-1.5418,-1.5425,-1.5414,-1.5411,-1.5407,-1.5301,-1.5414,-1.5411,-1.5409,-1.5195,-1.519,-1.5186,0,0,0,0,0,0,-1.539,-1.5384,-1.5338,-1.5366,-1.5362,-1.5394,-1.5374,-1.5382,-1.5373,-1.5397,-1.5404,-1.5402,-1.5416,-1.5412,-1.5354,-1.5302,-1.5409,-1.5406,-1.5199,-1.5193,-1.5188,-1.5085,0,0,0,0,0,0,-1.5392,-1.5384,-1.5349,-1.5365,-1.536,-1.5285,-1.5371,-1.5379,-1.5367,-1.5377,-1.5384,-1.5389,-1.5419,-1.5359,-1.535,-1.5299,-1.5404,-1.5204,-1.5197,-1.519,-1.5093,-1.5077,-1.5063,0,0,0,0,0,-1.5394,-1.5318,-1.5347,-1.534,-1.5318,-1.5282,-1.528,-1.5317,-1.5363,-1.5328,-1.5344,-1.5389,-1.5309,-1.5352,-1.5343,-1.529,-1.5207,-1.5199,-1.5191,-1.51,-1.508,-1.5063,0,0,0,0,0,0,-1.5293,-1.5321,-1.5353,-1.528,-1.5279,-1.5298,-1.5255,-1.5294,-1.5278,-1.5287,-1.5333,-1.5333,-1.5268,-1.5273,-1.5321,-1.5202,-1.5266,-1.5256,-1.52,-1.5181,-1.5166,-1.5166,-1.5401,0,0,0,0,0,-1.5263,-1.5233,-1.5259,-1.5192,-1.519,-1.5222,-1.5208,-1.5238,-1.5237,-1.5236,-1.5248,-1.5244,-1.5219,-1.52,-1.5178,-1.5095,-1.5098,-1.5054,-1.5039,-1.5026,-1.5016,-1.4974,-1.4955,-1.5158,-1.5158,-1.5159,0,0,-1.5198,-1.521,-1.5188,-1.5172,-1.5174,-1.5141,-1.5221,-1.5182,-1.5159,-1.523,-1.5176,-1.5185,-1.5184,-1.5113,-1.5083,-1.5116,-1.4961,-1.5015,-1.5005,-1.5002,-1.4963,-1.4944,-1.4927,-1.5153,-1.5154,-1.5155,0,0,-1.5066,-1.5071,-1.5017,-1.5019,-1.5023,-1.5045,-1.5032,-1.5047,-1.5056,-1.5003,-1.5057,-1.5028,-1.4983,-1.4981,-1.4974,-1.4843,-1.4884,-1.4834,-1.4753,-1.4712,-1.4696,-1.4682,-1.4636,-1.4619,-1.4825,-1.4824,-1.4824,0,-1.4985,-1.4939,-1.4984,-1.4943,-1.4935,-1.5001,-1.4946,-1.4945,-1.4939,-1.4932,-1.4969,-1.4915,-1.4919,-1.485,-1.4819,-1.481,-1.4797,-1.4833,-1.4695,-1.4681,-1.4669,-1.4625,-1.4608,-1.4818,-1.4819,-1.482,-1.482,0,-1.4841,-1.4808,-1.4764,-1.4761,-1.4747,-1.4699,-1.4736,-1.4717,-1.4748,-1.4767,-1.4713,-1.4721,-1.4702,-1.4688,-1.4717,-1.4623,-1.4644,-1.4687,-1.4753,-1.4643,-1.4603,-1.4586,-1.481,-1.4812,-1.4814,-1.4815,0,0,-1.4641,-1.4666,-1.4649,-1.4649,-1.4659,-1.4635,-1.459,-1.4575,-1.4557,-1.4552,-1.4516,-1.4478,-1.4519,-1.4511,-1.454,-1.4504,-1.4401,-1.4552,-1.4553,-1.4524,-1.43,-1.4267,-1.4247,-1.4429,-1.4426,-1.4424,-1.43,0,-1.4513,-1.444,-1.4481,-1.4402,-1.4373,-1.4437,-1.4398,-1.44,-1.4417,-1.4394,-1.4412,-1.4385,-1.4441,-1.4437,-1.4404,-1.4421,-1.4357,-1.443,-1.4395,-1.4393,-1.4393,-1.4226,-1.419,-1.4073,-1.4285,-1.4282,-1.428,0,-1.4353,-1.4344,-1.4263,-1.4282,-1.4271,-1.4236,-1.4226,-1.4204,-1.4207,-1.4222,-1.4215,-1.4254,-1.4211,-1.4277,-1.4219,-1.4268,-1.4257,-1.4263,-1.4259,-1.4257,-1.4329,-1.4219,-1.4036,-1.4019,-1.4256,-1.4258,-1.4259,0,-1.4216,-1.4184,-1.4133,-1.4131,-1.415,-1.4124,-1.4131,-1.4139,-1.4127,-1.4118,-1.4111,-1.4096,-1.4087,-1.4074,-1.4108,-1.4153,-1.4046,-1.4114,-1.4057,-1.4056,-1.403,-1.4031,-1.3843,-1.4023,-1.4023,-1.4023,-1.4024,0,-1.4068,-1.4016,-1.4072,-1.404,-1.3984,-1.4031,-1.3973,-1.3987,-1.3993,-1.3965,-1.4018,-1.399,-1.4037,-1.4013,-1.4039,-1.3987,-1.3983,-1.3993,-1.4001,-1.3988,-1.3987,-1.398,-1.3989,-1.4019,-1.402,-1.4021,-1.4021,0,-1.3905,-1.394,-1.3888,-1.3913,-1.3918,-1.3875,-1.3896,-1.3867,-1.3889,-1.3852,-1.3846,-1.3879,-1.3854,-1.3888,-1.3865,-1.3883,-1.3812,-1.3832,-1.3811,-1.3817,-1.3758,-1.3763,-1.3558,-1.3534,-1.3729,-1.3727,-1.3726,0,-1.3808,-1.3771,-1.3792,-1.3778,-1.3783,-1.3758,-1.3748,-1.3794,-1.378,-1.3784,-1.3754,-1.3734,-1.3721,-1.3678,-1.3699,-1.3682,-1.3702,-1.3632,-1.37,-1.3689,-1.3701,-1.3703,-1.37,-1.3617,-1.3615,-1.3613,-1.3612,0,-1.3633,-1.3653,-1.3638,-1.3628,-1.3615,-1.361,-1.3608,-1.3592,-1.364,-1.3623,-1.3599,-1.3589,-1.3568,-1.3547,-1.3537,-1.3543,-1.3584,-1.3591,-1.3576,-1.3563,-1.3553,-1.3558,-1.3773,-1.3594,-1.3596,-1.3597,-1.3598,-1.3599,-1.35,-1.347,-1.3482,-1.3463,-1.3467,-1.3465,-1.344,-1.346,-1.3442,-1.343,-1.3458,-1.3428,-1.3434,-1.3425,-1.3427,-1.3403,-1.3434,-1.3413,-1.3408,-1.3402,-1.3393,-1.3557,-1.3401,-1.3402,-1.3403,-1.3403,-1.3403,0,-1.3328,-1.334,-1.3322,-1.332,-1.3305,-1.3349,-1.335,-1.3334,-1.3308,-1.3311,-1.3298,-1.3272,-1.3253,-1.3274,-1.3259,-1.3236,-1.3255,-1.3231,-1.3233,-1.3234,-1.3366,-1.338,-1.3216,-1.3216,-1.3216,-1.3216,-1.3216,-1.3216,-1.3236,-1.3189,-1.3211,-1.3166,-1.3178,-1.3151,-1.3148,-1.3146,-1.315,-1.3119,-1.3104,-1.312,-1.313,-1.3117,-1.3102,-1.3109,-1.31,-1.3069,-1.3082,-1.3206,-1.3224,-1.3241,-1.3255,-1.3067,-1.3067,-1.2952,-1.2951,-1.295]}]]